PulseSat

PulseSat

GSAT-10

Last updated on Dec. 16, 2018, 12:08 a.m. UTC

1 38779U 12051B   18349.53580410 -.00000152  00000-0  00000+0 0  9992
2 38779   0.0157 306.9726 0001676 278.0765 134.9520  1.00271368 22812
UTC
Height (km)
Latitude
Longitude
Inclination
Orbital Period

Next 30 passes for location: Hong Kong

Rise time Rise Azimuth (degrees) Set time Set Azimuth (degrees) Duration Max altitude (degrees)

No matching passes for this satellites

PulseSat

PulseSat is the new satellites software and hardware trackering solution by Pulsely.
Satellite Two Line Element Set source: US Air Force Space Command

Download PulseSat for iOS
© 2017 Pulsely Limited